Home   Weather   Tours   Past weeks

Flag for France Past Weather in Tours, Centre-Val de Loire, France — Yesterday and Last 2 Weeks

Now
37 °F

Passing clouds.


Feels Like: 32 °F
Forecast: 35 / 53 °F
Wind: 7 mph from North

Location: Tours Airport

Current Time: Apr 26, 2017 at 8:08:43 am

Latest Report: Apr 26, 2017 at 7:30 am


Visibility: N/A

Pressure: 29.92 "Hg

Humidity: 70%

Dew Point: 28 °F

Location of ToursLocation

Past Weather in Tours — Graph

°F

Tours Temperature Yesterday

Maximum temperature yesterday: 48 °F (at 12:00 am)
Minimum temperature yesterday: 41 °F (at 11:00 pm)
Average temperature yesterday: 45 °F

High & Low Weather Summary for the Past Weeks

 TemperatureHumidityPressure
High66 °F (Apr 12, 3:00 pm)100% (Apr 13, 7:00 am)30.57 "Hg (Apr 13, 7:00 am)
Low32 °F (Apr 20, 5:30 am)24% (Apr 21, 6:30 pm)29.83 "Hg (Apr 25, 7:00 pm)
Average50 °F63%30.22 "Hg
* Reported Apr 11 6:00 am — Apr 26 6:30 am, Tours, Weather by CustomWeather, © 2017

Note: Actual official high and low records may vary slightly from our data, if they occured in-between our weather recording intervals... More about our weather records

Advertising

Tours Weather History for the Previous 24 Hours

Scroll right to see more
 ConditionsComfort  
Time TempWeatherWind HumidityBarometerVisibility
6:30 am
Wed, Apr 26
37 °FPassing clouds.6 mph70%29.89 "HgN/A
6:00 am37 °FPassing clouds.5 mph70%29.89 "HgN/A
5:30 am37 °FClear.6 mph70%29.89 "Hg10 mi
5:00 am37 °FClear.7 mph75%29.89 "Hg10 mi
4:30 am37 °FClear.5 mph75%29.89 "Hg10 mi
4:00 am37 °FClear.6 mph75%29.89 "Hg10 mi
3:30 am37 °FClear.6 mph81%29.89 "Hg10 mi
3:00 am39 °FClear.5 mph75%29.89 "Hg10 mi
2:30 am39 °FPassing clouds.5 mph75%29.89 "HgN/A
2:00 am41 °FClear.7 mph70%29.89 "Hg10 mi
1:30 am41 °FClear.6 mph76%29.89 "Hg10 mi
1:00 am43 °FClear.5 mph71%29.89 "Hg10 mi
12:30 am43 °FClear.2 mph71%29.89 "Hg10 mi
12:00 am43 °FClear.1 mph71%29.89 "Hg10 mi
11:30 pm
Tue, Apr 25
41 °FClear.2 mph81%29.89 "Hg10 mi
11:00 pm41 °FClear.2 mph76%29.86 "Hg10 mi
10:30 pm43 °FClear.No wind66%29.86 "Hg10 mi
9:30 pm43 °FClear.2 mph71%29.86 "Hg10 mi
9:00 pm43 °FClear.5 mph71%29.86 "Hg10 mi
8:30 pm45 °FMostly cloudy.9 mph57%29.86 "HgN/A
8:00 pm45 °FMostly cloudy.9 mph57%29.86 "HgN/A
7:30 pm46 °FOvercast.9 mph57%29.86 "HgN/A
7:00 pm46 °FMostly cloudy.7 mph62%29.83 "HgN/A
6:30 pm46 °FOvercast.8 mph57%29.86 "HgN/A
6:00 pm46 °FPassing clouds.6 mph62%29.86 "HgN/A
5:30 pm45 °FPassing clouds.7 mph66%29.86 "HgN/A
4:30 pm45 °FLight rain. Mostly cloudy.8 mph76%29.86 "HgN/A
4:00 pm45 °FLight rain. Mostly cloudy.6 mph81%29.86 "HgN/A
3:30 pm45 °FLight rain. Overcast.8 mph81%29.86 "HgN/A
3:00 pm45 °FLight rain. Overcast.9 mph81%29.89 "HgN/A
2:30 pm43 °FLight rain. Overcast.8 mph81%29.89 "HgN/A
1:30 pm43 °FLight rain. More clouds than sun.8 mph81%29.89 "HgN/A
1:00 pm43 °FLight rain. Mostly cloudy.9 mph81%29.89 "HgN/A
12:30 pm45 °FLight rain. Mostly cloudy.9 mph76%29.89 "HgN/A
12:00 pm46 °FLight rain. Mostly cloudy.9 mph71%29.89 "HgN/A
11:30 am46 °FOvercast.10 mph71%29.89 "HgN/A
11:00 am48 °FMostly cloudy.13 mph66%29.89 "HgN/A
10:30 am46 °FOvercast.9 mph71%29.89 "HgN/A
10:00 am46 °FOvercast.14 mph82%29.89 "HgN/A
9:00 am48 °FOvercast.8 mph82%29.89 "HgN/A
8:30 am46 °FPartly sunny.7 mph87%29.86 "HgN/A
Weather by CustomWeather, © 2017

See weather overviewHow to use our weather pages